Time,TemperatureF,DewpointF,PressureIn,WindDirection,WindDirectionDegrees,WindSpeedMPH,WindSpeedGustMPH,Humidity,HourlyPrecipIn,Conditions,Clouds,dailyrainin,SolarRadiationWatts/m^2,SoftwareType,DateUTC
2013-03-07 00:03:00,44.3,40.1,30.02,SW,232,0.0,0.0,85,0.00,,,0.00,0,Wunderground v.1.15,2013-03-07 08:03:00,
2013-03-07 00:09:00,44.3,40.1,30.02,SW,232,0.0,0.0,85,0.00,,,0.00,0,Wunderground v.1.15,2013-03-07 08:09:00,
2013-03-07 00:14:00,44.3,40.1,30.02,SW,232,0.0,0.0,85,0.00,,,0.00,0,Wunderground v.1.15,2013-03-07 08:14:00,
2013-03-07 00:19:00,44.3,40.1,30.01,SW,232,0.0,0.0,85,0.00,,,0.00,0,Wunderground v.1.15,2013-03-07 08:19:00,
2013-03-07 00:25:00,44.3,40.1,30.02,SW,232,0.0,0.0,85,0.00,,,0.00,0,Wunderground v.1.15,2013-03-07 08:25:00,
2013-03-07 00:31:00,44.3,40.1,30.02,SW,232,0.0,0.0,85,0.00,,,0.00,0,Wunderground v.1.15,2013-03-07 08:31:00,
2013-03-07 00:36:00,44.4,40.2,30.02,SW,232,0.0,0.0,85,0.00,,,0.00,0,Wunderground v.1.15,2013-03-07 08:36:00,
2013-03-07 00:41:00,44.4,40.2,30.02,SW,232,0.0,0.0,85,0.00,,,0.00,0,Wunderground v.1.15,2013-03-07 08:41:00,
2013-03-07 00:46:00,44.5,40.3,30.01,SW,232,0.0,0.0,85,0.00,,,0.00,0,Wunderground v.1.15,2013-03-07 08:46:00,
2013-03-07 00:52:00,44.5,40.3,30.01,SW,232,0.0,0.0,85,0.00,,,0.00,0,Wunderground v.1.15,2013-03-07 08:52:00,
2013-03-07 00:58:00,44.5,40.3,30.01,SW,232,0.0,0.0,85,0.00,,,0.00,0,Wunderground v.1.15,2013-03-07 08:58:00,
2013-03-07 01:03:00,44.5,40.3,30.01,SW,232,0.0,0.0,85,0.00,,,0.00,0,Wunderground v.1.15,2013-03-07 09:03:00,
2013-03-07 01:09:00,44.5,40.3,30.01,SW,232,0.0,0.0,85,0.00,,,0.00,0,Wunderground v.1.15,2013-03-07 09:09:00,
2013-03-07 01:14:00,44.5,40.3,30.01,SW,232,0.0,0.0,85,0.00,,,0.00,0,Wunderground v.1.15,2013-03-07 09:14:00,
2013-03-07 01:20:00,44.5,40.0,30.01,SW,232,0.0,0.0,84,0.00,,,0.00,0,Wunderground v.1.15,2013-03-07 09:20:00,
2013-03-07 01:26:00,44.5,40.0,30.01,SW,232,0.0,0.0,84,0.00,,,0.00,0,Wunderground v.1.15,2013-03-07 09:26:00,
2013-03-07 01:31:00,44.5,40.3,30.01,SW,232,0.0,0.0,85,0.00,,,0.00,0,Wunderground v.1.15,2013-03-07 09:31:00,
2013-03-07 01:37:00,44.4,40.2,30.01,SW,232,0.0,0.0,85,0.00,,,0.00,0,Wunderground v.1.15,2013-03-07 09:37:00,
2013-03-07 01:43:00,44.4,40.2,30.01,SW,232,0.0,0.0,85,0.00,,,0.00,0,Wunderground v.1.15,2013-03-07 09:43:00,
2013-03-07 01:48:00,44.4,40.2,30.01,SW,232,0.0,0.0,85,0.00,,,0.00,0,Wunderground v.1.15,2013-03-07 09:48:00,
2013-03-07 01:53:00,44.3,40.1,30.01,SW,232,0.0,0.0,85,0.00,,,0.00,0,Wunderground v.1.15,2013-03-07 09:53:00,
2013-03-07 01:59:00,44.3,40.1,30.01,SW,232,0.0,0.0,85,0.00,,,0.00,0,Wunderground v.1.15,2013-03-07 09:59:00,
2013-03-07 02:05:00,44.3,40.1,30.01,SW,232,0.0,0.0,85,0.00,,,0.00,0,Wunderground v.1.15,2013-03-07 10:05:00,
2013-03-07 02:10:00,44.2,40.0,30.00,SW,232,0.0,0.0,85,0.00,,,0.00,0,Wunderground v.1.15,2013-03-07 10:10:00,
2013-03-07 02:16:00,44.2,40.0,30.00,SW,232,0.0,0.0,85,0.00,,,0.00,0,Wunderground v.1.15,2013-03-07 10:16:00,
2013-03-07 02:21:00,44.1,39.9,30.00,SW,232,0.0,0.0,85,0.00,,,0.00,0,Wunderground v.1.15,2013-03-07 10:21:00,
2013-03-07 02:26:00,44.0,39.8,30.00,SW,232,0.0,0.0,85,0.00,,,0.00,0,Wunderground v.1.15,2013-03-07 10:26:00,
2013-03-07 02:32:00,43.7,39.8,30.00,SW,232,0.0,0.0,86,0.00,,,0.00,0,Wunderground v.1.15,2013-03-07 10:32:00,
2013-03-07 02:38:00,43.6,39.7,30.00,SW,226,0.0,0.0,86,0.00,,,0.00,0,Wunderground v.1.15,2013-03-07 10:38:00,
2013-03-07 02:43:00,43.4,39.8,29.99,SW,226,0.0,0.0,87,0.00,,,0.00,0,Wunderground v.1.15,2013-03-07 10:43:00,
2013-03-07 02:48:00,43.4,39.8,29.99,SW,226,0.0,0.0,87,0.00,,,0.00,0,Wunderground v.1.15,2013-03-07 10:48:00,
2013-03-07 02:53:00,43.4,39.8,29.99,SW,226,0.0,0.0,87,0.00,,,0.00,0,Wunderground v.1.15,2013-03-07 10:53:00,
2013-03-07 02:59:00,43.4,39.8,29.99,SW,226,0.0,0.0,87,0.00,,,0.00,0,Wunderground v.1.15,2013-03-07 10:59:00,
2013-03-07 03:04:00,43.4,39.8,29.99,SW,226,0.0,0.0,87,0.00,,,0.00,0,Wunderground v.1.15,2013-03-07 11:04:00,
2013-03-07 03:10:00,43.4,39.8,29.99,SW,227,0.0,0.0,87,0.00,,,0.00,0,Wunderground v.1.15,2013-03-07 11:10:00,
2013-03-07 03:16:00,43.4,39.8,29.99,SW,226,0.0,0.0,87,0.00,,,0.00,0,Wunderground v.1.15,2013-03-07 11:16:00,
2013-03-07 03:21:00,43.4,40.1,29.99,SW,226,0.0,0.0,88,0.00,,,0.00,0,Wunderground v.1.15,2013-03-07 11:21:00,
2013-03-07 03:27:00,43.4,40.1,29.99,SW,226,0.0,0.0,88,0.00,,,0.00,0,Wunderground v.1.15,2013-03-07 11:27:00,
2013-03-07 03:33:00,43.4,40.1,29.99,SW,226,0.0,0.0,88,0.00,,,0.00,0,Wunderground v.1.15,2013-03-07 11:33:00,
2013-03-07 03:38:00,43.3,40.0,29.98,SW,219,0.0,0.0,88,0.00,,,0.00,0,Wunderground v.1.15,2013-03-07 11:38:00,
2013-03-07 03:43:00,43.2,39.9,29.98,SW,220,0.0,0.0,88,0.00,,,0.00,0,Wunderground v.1.15,2013-03-07 11:43:00,
2013-03-07 03:49:00,43.1,39.8,29.98,South,182,0.0,0.0,88,0.00,,,0.00,0,Wunderground v.1.15,2013-03-07 11:49:00,
2013-03-07 03:54:00,43.0,39.7,29.98,SE,144,0.0,0.0,88,0.00,,,0.00,0,Wunderground v.1.15,2013-03-07 11:54:00,
2013-03-07 04:00:00,42.8,39.5,29.98,ESE,116,0.0,0.0,88,0.00,,,0.00,0,Wunderground v.1.15,2013-03-07 12:00:00,
2013-03-07 04:06:00,42.7,39.4,29.98,East,92,0.0,1.0,88,0.00,,,0.00,0,Wunderground v.1.15,2013-03-07 12:06:00,
2013-03-07 04:11:00,42.8,39.5,29.98,East,84,1.0,5.0,88,0.00,,,0.00,0,Wunderground v.1.15,2013-03-07 12:11:00,
2013-03-07 04:16:00,42.7,39.4,29.98,ENE,76,4.0,6.0,88,0.00,,,0.00,0,Wunderground v.1.15,2013-03-07 12:16:00,
2013-03-07 04:21:00,42.8,39.5,29.98,ENE,76,5.0,5.0,88,0.00,,,0.00,0,Wunderground v.1.15,2013-03-07 12:21:00,
2013-03-07 04:27:00,42.9,39.3,29.98,ENE,76,4.0,5.0,87,0.00,,,0.00,0,Wunderground v.1.15,2013-03-07 12:27:00,
2013-03-07 04:32:00,43.0,39.4,29.98,ENE,76,3.0,3.0,87,0.00,,,0.00,0,Wunderground v.1.15,2013-03-07 12:32:00,
2013-03-07 04:37:00,43.0,39.1,29.98,ENE,76,3.0,4.0,86,0.00,,,0.00,0,Wunderground v.1.15,2013-03-07 12:37:00,
2013-03-07 04:43:00,43.1,39.2,29.98,ENE,76,3.0,4.0,86,0.00,,,0.00,0,Wunderground v.1.15,2013-03-07 12:43:00,
2013-03-07 04:49:00,43.2,39.0,29.98,ENE,76,3.0,4.0,85,0.00,,,0.00,0,Wunderground v.1.15,2013-03-07 12:49:00,
2013-03-07 04:55:00,43.3,38.8,29.98,ENE,77,4.0,5.0,84,0.00,,,0.00,0,Wunderground v.1.15,2013-03-07 12:55:00,
2013-03-07 05:00:00,43.4,38.6,29.97,East,80,4.0,6.0,83,0.00,,,0.00,0,Wunderground v.1.15,2013-03-07 13:00:00,
2013-03-07 05:06:00,43.4,38.3,29.97,East,84,4.0,6.0,82,0.00,,,0.00,0,Wunderground v.1.15,2013-03-07 13:06:00,
2013-03-07 05:11:00,43.3,38.2,29.97,East,83,4.0,4.0,82,0.00,,,0.00,0,Wunderground v.1.15,2013-03-07 13:11:00,
2013-03-07 05:17:00,43.4,38.0,29.97,East,83,4.0,4.0,81,0.00,,,0.00,0,Wunderground v.1.15,2013-03-07 13:17:00,
2013-03-07 05:22:00,43.4,37.6,29.97,East,82,4.0,6.0,80,0.00,,,0.00,0,Wunderground v.1.15,2013-03-07 13:22:00,
2013-03-07 05:28:00,43.5,37.7,29.97,East,83,4.0,6.0,80,0.00,,,0.00,0,Wunderground v.1.15,2013-03-07 13:28:00,
2013-03-07 05:33:00,43.5,37.7,29.97,East,83,4.0,5.0,80,0.00,,,0.00,0,Wunderground v.1.15,2013-03-07 13:33:00,
2013-03-07 05:39:00,43.4,37.6,29.97,East,84,4.0,5.0,80,0.00,,,0.00,0,Wunderground v.1.15,2013-03-07 13:39:00,
2013-03-07 05:44:00,43.4,37.3,29.97,East,84,5.0,5.0,79,0.00,,,0.00,0,Wunderground v.1.15,2013-03-07 13:44:00,
2013-03-07 05:50:00,43.4,37.0,29.97,East,84,3.0,3.0,78,0.00,,,0.00,0,Wunderground v.1.15,2013-03-07 13:50:00,
2013-03-07 05:56:00,43.5,36.8,29.97,East,84,2.0,5.0,77,0.00,,,0.00,0,Wunderground v.1.15,2013-03-07 13:56:00,
2013-03-07 06:01:00,43.5,36.8,29.97,East,84,2.0,5.0,77,0.00,,,0.00,0,Wunderground v.1.15,2013-03-07 14:01:00,
2013-03-07 06:07:00,43.5,36.4,29.97,East,85,3.0,5.0,76,0.00,,,0.00,0,Wunderground v.1.15,2013-03-07 14:07:00,
2013-03-07 06:13:00,43.6,36.5,29.97,East,85,3.0,5.0,76,0.00,,,0.00,0,Wunderground v.1.15,2013-03-07 14:13:00,
2013-03-07 06:19:00,43.6,36.5,29.97,East,85,1.0,5.0,76,0.00,,,0.00,0,Wunderground v.1.15,2013-03-07 14:19:00,
2013-03-07 06:25:00,43.6,36.5,29.97,East,85,0.0,0.0,76,0.00,,,0.00,0,Wunderground v.1.15,2013-03-07 14:25:00,
2013-03-07 06:31:00,43.6,36.5,29.96,East,85,1.0,3.0,76,0.00,,,0.00,0,Wunderground v.1.15,2013-03-07 14:31:00,
2013-03-07 06:36:00,43.6,36.5,29.97,East,86,1.0,2.0,76,0.00,,,0.00,0,Wunderground v.1.15,2013-03-07 14:36:00,
2013-03-07 06:41:00,43.6,36.5,29.96,East,85,0.0,0.0,76,0.00,,,0.00,5,Wunderground v.1.15,2013-03-07 14:41:00,
2013-03-07 06:46:00,43.6,36.5,29.96,East,85,0.0,0.0,76,0.00,,,0.00,12,Wunderground v.1.15,2013-03-07 14:46:00,
2013-03-07 06:51:00,43.6,36.5,29.96,East,85,0.0,0.0,76,0.00,,,0.00,23,Wunderground v.1.15,2013-03-07 14:51:00,
2013-03-07 06:57:00,43.6,36.5,29.97,East,85,0.0,0.0,76,0.00,,,0.00,33,Wunderground v.1.15,2013-03-07 14:57:00,
2013-03-07 07:02:00,43.6,36.5,29.97,East,86,0.0,0.0,76,0.00,,,0.00,42,Wunderground v.1.15,2013-03-07 15:02:00,
2013-03-07 07:08:00,43.5,36.8,29.97,East,85,0.0,0.0,77,0.00,,,0.00,46,Wunderground v.1.15,2013-03-07 15:08:00,
2013-03-07 07:13:00,43.4,36.7,29.97,East,89,0.0,0.0,77,0.00,,,0.00,51,Wunderground v.1.15,2013-03-07 15:13:00,
2013-03-07 07:18:00,43.3,37.2,29.97,East,89,0.0,0.0,79,0.00,,,0.00,56,Wunderground v.1.15,2013-03-07 15:18:00,
2013-03-07 07:23:00,43.1,37.3,29.97,East,89,0.0,0.0,80,0.00,,,0.00,60,Wunderground v.1.15,2013-03-07 15:23:00,
2013-03-07 07:29:00,42.8,37.4,29.97,East,89,0.0,0.0,81,0.00,,,0.00,63,Wunderground v.1.15,2013-03-07 15:29:00,
2013-03-07 07:34:00,42.8,37.7,29.97,East,89,0.0,0.0,82,0.00,,,0.00,70,Wunderground v.1.15,2013-03-07 15:34:00,
2013-03-07 07:40:00,42.7,37.9,29.97,East,89,0.0,0.0,83,0.00,,,0.00,88,Wunderground v.1.15,2013-03-07 15:40:00,
2013-03-07 07:46:00,42.5,37.4,29.97,East,89,0.0,0.0,82,0.00,,,0.00,104,Wunderground v.1.15,2013-03-07 15:46:00,
2013-03-07 07:52:00,42.5,37.7,29.97,East,89,0.0,0.0,83,0.00,,,0.00,120,Wunderground v.1.15,2013-03-07 15:52:00,
2013-03-07 07:57:00,42.7,37.9,29.97,East,89,0.0,0.0,83,0.00,,,0.00,134,Wunderground v.1.15,2013-03-07 15:57:00,
2013-03-07 08:03:00,42.9,38.1,29.97,East,90,0.0,0.0,83,0.00,,,0.00,137,Wunderground v.1.15,2013-03-07 16:03:00,
2013-03-07 08:09:00,43.3,38.2,29.97,East,89,0.0,0.0,82,0.00,,,0.00,153,Wunderground v.1.15,2013-03-07 16:09:00,
2013-03-07 08:14:00,43.7,37.9,29.97,East,90,0.0,0.0,80,0.00,,,0.00,160,Wunderground v.1.15,2013-03-07 16:14:00,
2013-03-07 08:20:00,44.3,37.9,29.98,ESE,115,1.0,1.0,78,0.00,,,0.00,171,Wunderground v.1.15,2013-03-07 16:20:00,
2013-03-07 08:26:00,44.7,38.3,29.98,SE,129,2.0,2.0,78,0.00,,,0.00,216,Wunderground v.1.15,2013-03-07 16:26:00,
2013-03-07 08:31:00,45.0,38.6,29.98,SE,130,3.0,6.0,78,0.00,,,0.00,211,Wunderground v.1.15,2013-03-07 16:31:00,
2013-03-07 08:36:00,45.2,38.7,29.98,ESE,121,4.0,6.0,78,0.00,,,0.00,287,Wunderground v.1.15,2013-03-07 16:36:00,
2013-03-07 08:41:00,45.5,39.4,29.98,SE,130,4.0,4.0,79,0.00,,,0.00,320,Wunderground v.1.15,2013-03-07 16:41:00,
2013-03-07 08:47:00,46.0,39.9,29.98,SE,130,3.0,7.0,79,0.00,,,0.00,392,Wunderground v.1.15,2013-03-07 16:47:00,
2013-03-07 08:52:00,46.4,39.9,29.98,ESE,106,5.0,5.0,78,0.00,,,0.00,461,Wunderground v.1.15,2013-03-07 16:52:00,
2013-03-07 08:58:00,46.8,40.3,29.97,SE,134,5.0,9.0,78,0.00,,,0.00,445,Wunderground v.1.15,2013-03-07 16:58:00,
2013-03-07 09:03:00,47.2,40.0,29.97,ESE,107,5.0,9.0,76,0.00,,,0.00,464,Wunderground v.1.15,2013-03-07 17:03:00,
2013-03-07 09:08:00,47.7,39.8,29.98,SE,125,5.0,9.0,74,0.00,,,0.00,457,Wunderground v.1.15,2013-03-07 17:08:00,
2013-03-07 09:13:00,48.0,39.4,29.98,SE,133,6.0,9.0,72,0.00,,,0.00,485,Wunderground v.1.15,2013-03-07 17:13:00,
2013-03-07 09:19:00,48.3,39.0,29.97,SSE,150,6.0,9.0,70,0.00,,,0.00,499,Wunderground v.1.15,2013-03-07 17:19:00,
2013-03-07 09:25:00,48.6,38.5,29.97,SE,129,6.0,8.0,68,0.00,,,0.00,492,Wunderground v.1.15,2013-03-07 17:25:00,
2013-03-07 09:30:00,49.0,38.1,29.97,ESE,117,4.0,5.0,66,0.00,,,0.00,489,Wunderground v.1.15,2013-03-07 17:30:00,
2013-03-07 09:36:00,49.2,37.9,29.97,East,98,6.0,7.0,65,0.00,,,0.00,527,Wunderground v.1.15,2013-03-07 17:36:00,
2013-03-07 09:42:00,49.5,37.4,29.97,South,184,4.0,7.0,63,0.00,,,0.00,353,Wunderground v.1.15,2013-03-07 17:42:00,
2013-03-07 09:48:00,49.7,37.2,29.97,ESE,123,3.0,7.0,62,0.00,,,0.00,443,Wunderground v.1.15,2013-03-07 17:48:00,
2013-03-07 09:54:00,49.9,37.0,29.97,ESE,115,3.0,5.0,61,0.00,,,0.00,429,Wunderground v.1.15,2013-03-07 17:54:00,
2013-03-07 10:00:00,50.3,36.9,29.97,ESE,119,3.0,3.0,60,0.00,,,0.00,415,Wunderground v.1.15,2013-03-07 18:00:00,
2013-03-07 10:06:00,50.5,36.3,29.97,East,88,3.0,8.0,58,0.00,,,0.00,410,Wunderground v.1.15,2013-03-07 18:06:00,
2013-03-07 10:11:00,50.5,35.8,29.97,ESE,119,4.0,7.0,57,0.00,,,0.00,417,Wunderground v.1.15,2013-03-07 18:11:00,
2013-03-07 10:17:00,50.6,35.5,29.97,SE,134,5.0,7.0,56,0.00,,,0.00,469,Wunderground v.1.15,2013-03-07 18:17:00,
2013-03-07 10:22:00,50.9,36.6,29.97,SE,126,4.0,4.0,58,0.00,,,0.00,369,Wunderground v.1.15,2013-03-07 18:22:00,
2013-03-07 10:28:00,51.2,37.4,29.97,SE,132,3.0,5.0,59,0.00,,,0.00,429,Wunderground v.1.15,2013-03-07 18:28:00,
2013-03-07 10:33:00,51.1,37.3,29.97,SE,132,3.0,5.0,59,0.00,,,0.00,295,Wunderground v.1.15,2013-03-07 18:33:00,
2013-03-07 10:39:00,50.9,37.5,29.97,ESE,112,3.0,5.0,60,0.00,,,0.00,318,Wunderground v.1.15,2013-03-07 18:39:00,
2013-03-07 10:44:00,50.8,37.0,29.96,SW,217,3.0,5.0,59,0.00,,,0.00,415,Wunderground v.1.15,2013-03-07 18:44:00,
2013-03-07 10:50:00,50.7,36.5,29.96,SSE,165,3.0,3.0,58,0.00,,,0.00,355,Wunderground v.1.15,2013-03-07 18:50:00,
2013-03-07 10:56:00,50.8,37.0,29.96,SSE,164,1.0,3.0,59,0.00,,,0.00,362,Wunderground v.1.15,2013-03-07 18:56:00,
2013-03-07 11:01:00,51.1,37.3,29.96,SE,136,1.0,1.0,59,0.00,,,0.00,404,Wunderground v.1.15,2013-03-07 19:01:00,
2013-03-07 11:07:00,51.6,37.3,29.96,SE,133,1.0,1.0,58,0.00,,,0.00,417,Wunderground v.1.15,2013-03-07 19:07:00,
2013-03-07 11:12:00,52.0,36.3,29.96,SE,126,2.0,5.0,55,0.00,,,0.00,694,Wunderground v.1.15,2013-03-07 19:12:00,
2013-03-07 11:18:00,52.3,36.6,29.96,SE,145,4.0,6.0,55,0.00,,,0.00,703,Wunderground v.1.15,2013-03-07 19:18:00,
2013-03-07 11:23:00,52.5,35.4,29.95,SE,138,4.0,6.0,52,0.00,,,0.00,606,Wunderground v.1.15,2013-03-07 19:23:00,
2013-03-07 11:29:00,52.7,37.0,29.95,South,174,2.0,6.0,55,0.00,,,0.00,339,Wunderground v.1.15,2013-03-07 19:29:00,
2013-03-07 11:35:00,52.7,36.0,29.95,SE,126,2.0,5.0,53,0.00,,,0.00,508,Wunderground v.1.15,2013-03-07 19:35:00,
2013-03-07 11:40:00,52.6,35.5,29.95,SSE,148,3.0,3.0,52,0.00,,,0.00,482,Wunderground v.1.15,2013-03-07 19:40:00,
2013-03-07 11:46:00,52.6,36.4,29.95,South,180,2.0,3.0,54,0.00,,,0.00,399,Wunderground v.1.15,2013-03-07 19:46:00,
2013-03-07 11:51:00,52.8,36.1,29.95,SSE,165,2.0,3.0,53,0.00,,,0.00,369,Wunderground v.1.15,2013-03-07 19:51:00,
2013-03-07 11:56:00,52.8,36.1,29.95,SE,130,2.0,3.0,53,0.00,,,0.00,343,Wunderground v.1.15,2013-03-07 19:56:00,
2013-03-07 12:02:00,52.8,35.6,29.95,SE,138,2.0,5.0,52,0.00,,,0.00,450,Wunderground v.1.15,2013-03-07 20:02:00,
2013-03-07 12:07:00,52.9,35.2,29.95,SSE,156,3.0,8.0,51,0.00,,,0.00,494,Wunderground v.1.15,2013-03-07 20:07:00,
2013-03-07 12:12:00,53.0,36.3,29.95,SE,134,4.0,6.0,53,0.00,,,0.00,469,Wunderground v.1.15,2013-03-07 20:12:00,
2013-03-07 12:18:00,52.9,35.7,29.94,ESE,119,3.0,6.0,52,0.00,,,0.00,436,Wunderground v.1.15,2013-03-07 20:18:00,
2013-03-07 12:23:00,52.8,36.6,29.94,ESE,111,2.0,3.0,54,0.00,,,0.00,410,Wunderground v.1.15,2013-03-07 20:23:00,
2013-03-07 12:29:00,53.0,36.3,29.94,SSE,158,1.0,3.0,53,0.00,,,0.00,415,Wunderground v.1.15,2013-03-07 20:29:00,
2013-03-07 12:34:00,52.9,36.2,29.94,South,186,2.0,6.0,53,0.00,,,0.00,411,Wunderground v.1.15,2013-03-07 20:34:00,
2013-03-07 12:40:00,53.0,37.3,29.94,South,178,1.0,1.0,55,0.00,,,0.00,376,Wunderground v.1.15,2013-03-07 20:40:00,
2013-03-07 12:46:00,53.2,36.0,29.94,South,175,0.0,1.0,52,0.00,,,0.00,445,Wunderground v.1.15,2013-03-07 20:46:00,
2013-03-07 12:51:00,53.4,35.7,29.93,SE,127,1.0,1.0,51,0.00,,,0.00,517,Wunderground v.1.15,2013-03-07 20:51:00,
2013-03-07 12:57:00,53.8,35.6,29.93,ESE,121,1.0,1.0,50,0.00,,,0.00,360,Wunderground v.1.15,2013-03-07 20:57:00,
2013-03-07 13:02:00,54.4,36.6,29.92,SSE,160,0.0,2.0,51,0.00,,,0.00,318,Wunderground v.1.15,2013-03-07 21:02:00,
2013-03-07 13:07:00,54.9,36.6,29.92,SE,136,1.0,8.0,50,0.00,,,0.00,671,Wunderground v.1.15,2013-03-07 21:07:00,
2013-03-07 13:12:00,55.1,35.2,29.92,ESE,117,2.0,2.0,47,0.00,,,0.00,392,Wunderground v.1.15,2013-03-07 21:12:00,
2013-03-07 13:18:00,54.4,35.6,29.92,ESE,123,5.0,11.0,49,0.00,,,0.00,376,Wunderground v.1.15,2013-03-07 21:18:00,
2013-03-07 13:23:00,53.9,35.7,29.92,ENE,68,6.0,7.0,50,0.00,,,0.00,290,Wunderground v.1.15,2013-03-07 21:23:00,
2013-03-07 13:29:00,54.0,36.3,29.91,ESE,117,3.0,7.0,51,0.00,,,0.00,302,Wunderground v.1.15,2013-03-07 21:29:00,
2013-03-07 13:34:00,54.0,36.3,29.91,SE,129,1.0,6.0,51,0.00,,,0.00,297,Wunderground v.1.15,2013-03-07 21:34:00,
2013-03-07 13:40:00,54.1,36.4,29.91,ESE,115,2.0,2.0,51,0.00,,,0.00,274,Wunderground v.1.15,2013-03-07 21:40:00,
2013-03-07 13:46:00,53.8,35.6,29.91,ENE,77,2.0,4.0,50,0.00,,,0.00,360,Wunderground v.1.15,2013-03-07 21:46:00,
2013-03-07 13:52:00,53.6,35.9,29.91,ENE,61,3.0,10.0,51,0.00,,,0.00,287,Wunderground v.1.15,2013-03-07 21:52:00,
2013-03-07 13:58:00,53.1,36.4,29.90,NE,51,4.0,10.0,53,0.00,,,0.00,323,Wunderground v.1.15,2013-03-07 21:58:00,
2013-03-07 14:03:00,53.0,36.3,29.90,NW,304,4.0,7.0,53,0.00,,,0.00,227,Wunderground v.1.15,2013-03-07 22:03:00,
2013-03-07 14:09:00,52.8,36.6,29.90,NNE,32,5.0,10.0,54,0.00,,,0.00,128,Wunderground v.1.15,2013-03-07 22:09:00,
2013-03-07 14:15:00,52.3,36.6,29.90,NNE,33,7.0,11.0,55,0.00,,,0.00,105,Wunderground v.1.15,2013-03-07 22:15:00,
2013-03-07 14:20:00,52.0,36.8,29.90,NE,34,6.0,6.0,56,0.00,,,0.00,127,Wunderground v.1.15,2013-03-07 22:20:00,
2013-03-07 14:26:00,51.9,37.1,29.90,NNE,28,5.0,9.0,57,0.00,,,0.00,176,Wunderground v.1.15,2013-03-07 22:26:00,
2013-03-07 14:32:00,51.9,37.1,29.90,NNE,28,4.0,4.0,57,0.00,,,0.00,195,Wunderground v.1.15,2013-03-07 22:32:00,
2013-03-07 14:38:00,52.1,37.8,29.90,North,355,3.0,4.0,58,0.00,,,0.00,221,Wunderground v.1.15,2013-03-07 22:38:00,
2013-03-07 14:43:00,52.4,38.0,29.90,NNW,348,2.0,3.0,58,0.00,,,0.00,404,Wunderground v.1.15,2013-03-07 22:43:00,
2013-03-07 14:48:00,52.6,38.2,29.90,NNW,330,2.0,5.0,58,0.00,,,0.00,316,Wunderground v.1.15,2013-03-07 22:48:00,
2013-03-07 14:53:00,52.7,37.9,29.89,NE,37,5.0,9.0,57,0.00,,,0.00,459,Wunderground v.1.15,2013-03-07 22:53:00,
2013-03-07 14:59:00,52.8,38.4,29.89,NNW,338,6.0,9.0,58,0.00,,,0.00,410,Wunderground v.1.15,2013-03-07 22:59:00,
2013-03-07 15:04:00,53.0,38.2,29.89,NE,52,4.0,8.0,57,0.00,,,0.00,541,Wunderground v.1.15,2013-03-07 23:04:00,
2013-03-07 15:10:00,53.2,39.2,29.89,NNW,334,5.0,5.0,59,0.00,,,0.00,612,Wunderground v.1.15,2013-03-07 23:10:00,
2013-03-07 15:16:00,53.9,39.5,29.89,NE,51,4.0,8.0,58,0.00,,,0.00,559,Wunderground v.1.15,2013-03-07 23:16:00,
2013-03-07 15:21:00,53.9,38.6,29.89,NNE,30,4.0,4.0,56,0.00,,,0.00,450,Wunderground v.1.15,2013-03-07 23:21:00,
2013-03-07 15:28:00,53.6,38.7,29.89,NE,47,6.0,11.0,57,0.00,,,0.00,410,Wunderground v.1.15,2013-03-07 23:28:00,
2013-03-07 15:34:00,53.4,38.5,29.89,ENE,73,7.0,8.0,57,0.00,,,0.00,251,Wunderground v.1.15,2013-03-07 23:34:00,
2013-03-07 15:40:00,53.0,38.6,29.89,NE,38,8.0,10.0,58,0.00,,,0.00,169,Wunderground v.1.15,2013-03-07 23:40:00,
2013-03-07 15:46:00,52.9,39.0,29.89,North,10,6.0,7.0,59,0.00,,,0.00,123,Wunderground v.1.15,2013-03-07 23:46:00,
2013-03-07 15:51:00,52.7,39.6,29.89,NE,44,6.0,9.0,61,0.00,,,0.00,109,Wunderground v.1.15,2013-03-07 23:51:00,
2013-03-07 15:57:00,52.1,39.5,29.88,NE,56,10.0,17.0,62,0.00,,,0.00,95,Wunderground v.1.15,2013-03-07 23:57:00,
2013-03-07 16:02:00,51.6,39.8,29.89,NNE,30,11.0,14.0,64,0.00,,,0.00,88,Wunderground v.1.15,2013-03-08 00:02:00,
2013-03-07 16:07:00,51.4,40.0,29.89,ENE,57,10.0,14.0,65,0.00,,,0.00,74,Wunderground v.1.15,2013-03-08 00:07:00,
2013-03-07 16:13:00,51.2,40.2,29.88,NNE,21,8.0,11.0,66,0.00,,,0.00,79,Wunderground v.1.15,2013-03-08 00:13:00,
2013-03-07 16:18:00,51.0,39.6,29.89,NE,49,8.0,11.0,65,0.00,,,0.00,113,Wunderground v.1.15,2013-03-08 00:18:00,
2013-03-07 16:24:00,51.1,40.1,29.89,East,88,4.0,7.0,66,0.00,,,0.00,141,Wunderground v.1.15,2013-03-08 00:24:00,
2013-03-07 16:29:00,51.3,40.3,29.89,East,84,1.0,7.0,66,0.00,,,0.00,144,Wunderground v.1.15,2013-03-08 00:29:00,
2013-03-07 16:34:00,51.5,40.9,29.89,SW,235,1.0,3.0,67,0.00,,,0.00,146,Wunderground v.1.15,2013-03-08 00:34:00,
2013-03-07 16:40:00,51.5,41.7,29.89,South,186,1.0,1.0,69,0.00,,,0.00,134,Wunderground v.1.15,2013-03-08 00:40:00,
2013-03-07 16:46:00,51.3,41.5,29.89,WSW,245,1.0,3.0,69,0.00,,,0.00,109,Wunderground v.1.15,2013-03-08 00:46:00,
2013-03-07 16:51:00,50.9,41.5,29.89,WNW,293,2.0,7.0,70,0.00,,,0.00,130,Wunderground v.1.15,2013-03-08 00:51:00,
2013-03-07 16:57:00,50.3,42.0,29.89,West,281,5.0,9.0,73,0.00,,,0.00,100,Wunderground v.1.15,2013-03-08 00:57:00,
2013-03-07 17:02:00,49.6,42.3,29.89,West,280,7.0,10.0,76,0.00,,,0.00,86,Wunderground v.1.15,2013-03-08 01:02:00,
2013-03-07 17:07:00,48.8,42.2,29.89,WNW,290,9.0,13.0,78,0.00,,,0.00,90,Wunderground v.1.15,2013-03-08 01:07:00,
2013-03-07 17:13:00,48.0,42.4,29.89,West,264,10.0,11.0,81,0.00,,,0.00,93,Wunderground v.1.15,2013-03-08 01:13:00,
2013-03-07 17:19:00,47.7,42.8,29.89,WNW,297,7.0,11.0,83,0.00,,,0.00,69,Wunderground v.1.15,2013-03-08 01:19:00,
2013-03-07 17:25:00,47.4,42.8,29.89,WSW,254,6.0,8.0,84,0.00,,,0.00,54,Wunderground v.1.15,2013-03-08 01:25:00,
2013-03-07 17:30:00,47.3,42.7,29.89,West,263,5.0,6.0,84,0.00,,,0.00,25,Wunderground v.1.15,2013-03-08 01:30:00,
2013-03-07 17:36:00,47.1,42.8,29.89,West,273,5.0,8.0,85,0.00,,,0.00,14,Wunderground v.1.15,2013-03-08 01:36:00,
2013-03-07 17:42:00,47.0,42.7,29.89,West,279,6.0,7.0,85,0.00,,,0.00,11,Wunderground v.1.15,2013-03-08 01:42:00,
2013-03-07 17:48:00,46.9,42.6,29.89,West,277,6.0,7.0,85,0.00,,,0.00,11,Wunderground v.1.15,2013-03-08 01:48:00,
2013-03-07 17:54:00,46.8,42.5,29.89,West,276,5.0,6.0,85,0.00,,,0.00,5,Wunderground v.1.15,2013-03-08 01:54:00,
2013-03-07 17:59:00,46.7,42.4,29.88,WNW,283,5.0,7.0,85,0.00,,,0.00,0,Wunderground v.1.15,2013-03-08 01:59:00,
2013-03-07 18:04:00,46.6,42.3,29.88,WNW,291,6.0,7.0,85,0.00,,,0.00,0,Wunderground v.1.15,2013-03-08 02:04:00,
2013-03-07 18:11:00,46.5,42.5,29.88,WNW,286,5.0,7.0,86,0.00,,,0.00,0,Wunderground v.1.15,2013-03-08 02:11:00,
2013-03-07 18:16:00,46.4,42.4,29.88,WNW,285,4.0,5.0,86,0.00,,,0.00,0,Wunderground v.1.15,2013-03-08 02:16:00,
2013-03-07 18:21:00,46.3,42.3,29.88,WNW,283,4.0,4.0,86,0.00,,,0.00,0,Wunderground v.1.15,2013-03-08 02:21:00,
2013-03-07 18:27:00,46.2,42.2,29.88,WNW,283,3.0,5.0,86,0.00,,,0.00,0,Wunderground v.1.15,2013-03-08 02:27:00,
2013-03-07 18:33:00,46.1,42.1,29.88,WNW,283,1.0,1.0,86,0.00,,,0.00,0,Wunderground v.1.15,2013-03-08 02:33:00,
2013-03-07 18:38:00,46.1,42.1,29.88,West,277,0.0,3.0,86,0.00,,,0.00,0,Wunderground v.1.15,2013-03-08 02:38:00,
2013-03-07 18:44:00,46.0,42.3,29.88,West,275,1.0,1.0,87,0.00,,,0.00,0,Wunderground v.1.15,2013-03-08 02:44:00,
2013-03-07 18:49:00,46.0,42.3,29.88,West,275,0.0,1.0,87,0.00,,,0.00,0,Wunderground v.1.15,2013-03-08 02:49:00,
2013-03-07 18:54:00,45.9,42.2,29.88,West,275,0.0,0.0,87,0.00,,,0.00,0,Wunderground v.1.15,2013-03-08 02:54:00,
2013-03-07 18:59:00,45.9,42.5,29.89,West,275,0.0,0.0,88,0.00,,,0.00,0,Wunderground v.1.15,2013-03-08 02:59:00,
2013-03-07 19:04:00,45.9,42.5,29.89,West,275,0.0,0.0,88,0.00,,,0.00,0,Wunderground v.1.15,2013-03-08 03:04:00,
2013-03-07 19:10:00,45.9,42.5,29.89,West,275,0.0,0.0,88,0.00,,,0.00,0,Wunderground v.1.15,2013-03-08 03:10:00,
2013-03-07 19:16:00,45.8,42.7,29.89,West,274,0.0,0.0,89,0.00,,,0.00,0,Wunderground v.1.15,2013-03-08 03:16:00,
2013-03-07 19:21:00,45.8,42.7,29.89,West,273,0.0,0.0,89,0.00,,,0.00,0,Wunderground v.1.15,2013-03-08 03:21:00,
2013-03-07 19:27:00,45.8,42.7,29.89,West,273,0.0,0.0,89,0.00,,,0.00,0,Wunderground v.1.15,2013-03-08 03:27:00,
2013-03-07 19:32:00,45.9,42.8,29.89,West,273,0.0,0.0,89,0.00,,,0.00,0,Wunderground v.1.15,2013-03-08 03:32:00,
2013-03-07 19:38:00,45.9,42.8,29.89,West,273,0.0,0.0,89,0.00,,,0.00,0,Wunderground v.1.15,2013-03-08 03:38:00,
2013-03-07 19:43:00,45.9,42.8,29.89,West,273,0.0,0.0,89,0.00,,,0.00,0,Wunderground v.1.15,2013-03-08 03:43:00,
2013-03-07 19:49:00,45.9,43.1,29.89,West,273,0.0,0.0,90,0.00,,,0.00,0,Wunderground v.1.15,2013-03-08 03:49:00,
2013-03-07 19:54:00,45.9,43.1,29.89,West,273,0.0,0.0,90,0.00,,,0.00,0,Wunderground v.1.15,2013-03-08 03:54:00,
2013-03-07 20:00:00,45.9,43.1,29.89,West,273,0.0,0.0,90,0.00,,,0.00,0,Wunderground v.1.15,2013-03-08 04:00:00,
2013-03-07 20:06:00,45.8,43.0,29.89,SW,233,1.0,5.0,90,0.00,,,0.00,0,Wunderground v.1.15,2013-03-08 04:06:00,
2013-03-07 20:11:00,45.8,43.0,29.90,SW,225,1.0,1.0,90,0.00,,,0.00,0,Wunderground v.1.15,2013-03-08 04:11:00,
2013-03-07 20:16:00,45.8,43.0,29.90,SW,225,0.0,1.0,90,0.00,,,0.01,0,Wunderground v.1.15,2013-03-08 04:16:00,
2013-03-07 20:22:00,45.8,43.0,29.90,SW,226,0.0,0.0,90,0.00,,,0.01,0,Wunderground v.1.15,2013-03-08 04:22:00,
2013-03-07 20:28:00,45.8,43.0,29.89,SW,226,0.0,0.0,90,0.00,,,0.01,0,Wunderground v.1.15,2013-03-08 04:28:00,
2013-03-07 20:33:00,45.8,43.0,29.90,SW,226,0.0,0.0,90,0.00,,,0.01,0,Wunderground v.1.15,2013-03-08 04:33:00,
2013-03-07 20:39:00,45.7,43.2,29.89,WSW,254,2.0,5.0,91,0.00,,,0.01,0,Wunderground v.1.15,2013-03-08 04:39:00,
2013-03-07 20:45:00,45.6,43.1,29.89,West,265,5.0,6.0,91,0.00,,,0.02,0,Wunderground v.1.15,2013-03-08 04:45:00,
2013-03-07 20:50:00,45.5,43.0,29.90,West,265,4.0,5.0,91,0.00,,,0.02,0,Wunderground v.1.15,2013-03-08 04:50:00,
2013-03-07 20:56:00,45.5,43.0,29.90,WSW,256,4.0,7.0,91,0.07,,,0.03,0,Wunderground v.1.15,2013-03-08 04:56:00,
2013-03-07 21:00:00,45.4,43.2,29.90,WSW,256,3.0,5.0,92,0.07,,,0.03,0,Wunderground v.1.15,2013-03-08 05:00:00,
2013-03-07 21:01:00,45.4,43.2,29.90,WSW,256,3.0,5.0,92,0.06,,,0.03,0,Wunderground v.1.15,2013-03-08 05:01:00,
2013-03-07 21:06:00,45.4,43.2,29.90,WSW,253,2.0,5.0,92,0.04,,,0.03,0,Wunderground v.1.15,2013-03-08 05:06:00,
2013-03-07 21:11:00,45.4,43.2,29.90,WSW,253,1.0,1.0,92,0.00,,,0.03,0,Wunderground v.1.15,2013-03-08 05:11:00,
2013-03-07 21:13:00,45.4,43.2,29.90,WSW,254,0.0,1.0,92,0.00,,,0.03,0,Wunderground v.1.15,2013-03-08 05:13:00,
2013-03-07 21:18:00,45.4,43.2,29.90,WSW,254,0.0,1.0,92,0.00,,,0.03,0,Wunderground v.1.15,2013-03-08 05:18:00,
2013-03-07 21:24:00,45.4,43.2,29.90,WSW,250,1.0,5.0,92,0.00,,,0.03,0,Wunderground v.1.15,2013-03-08 05:24:00,
2013-03-07 21:30:00,45.2,43.3,29.90,WSW,256,4.0,5.0,93,0.00,,,0.03,0,Wunderground v.1.15,2013-03-08 05:30:00,
2013-03-07 21:36:00,45.1,43.2,29.90,WSW,249,3.0,5.0,93,0.00,,,0.03,0,Wunderground v.1.15,2013-03-08 05:36:00,
2013-03-07 21:41:00,45.1,43.2,29.90,WSW,248,4.0,4.0,93,0.00,,,0.03,0,Wunderground v.1.15,2013-03-08 05:41:00,
2013-03-07 21:47:00,45.0,43.1,29.90,WSW,254,5.0,7.0,93,0.00,,,0.03,0,Wunderground v.1.15,2013-03-08 05:47:00,
2013-03-07 21:52:00,44.9,43.0,29.90,West,261,5.0,5.0,93,0.00,,,0.03,0,Wunderground v.1.15,2013-03-08 05:52:00,
2013-03-07 21:58:00,44.9,43.0,29.90,West,274,5.0,7.0,93,0.00,,,0.03,0,Wunderground v.1.15,2013-03-08 05:58:00,
2013-03-07 22:03:00,44.8,42.9,29.89,West,273,6.0,7.0,93,0.00,,,0.03,0,Wunderground v.1.15,2013-03-08 06:03:00,
2013-03-07 22:09:00,44.8,43.2,29.89,West,277,6.0,7.0,94,0.00,,,0.04,0,Wunderground v.1.15,2013-03-08 06:09:00,
2013-03-07 22:14:00,44.8,43.2,29.89,West,265,5.0,6.0,94,0.00,,,0.04,0,Wunderground v.1.15,2013-03-08 06:14:00,
2013-03-07 22:20:00,44.7,43.1,29.89,West,277,6.0,6.0,94,0.00,,,0.04,0,Wunderground v.1.15,2013-03-08 06:20:00,
2013-03-07 22:26:00,44.6,43.0,29.89,West,279,6.0,7.0,94,0.00,,,0.04,0,Wunderground v.1.15,2013-03-08 06:26:00,
2013-03-07 22:31:00,44.5,42.9,29.89,WNW,299,6.0,6.0,94,0.00,,,0.05,0,Wunderground v.1.15,2013-03-08 06:31:00,
2013-03-07 22:37:00,44.5,42.9,29.89,WNW,288,6.0,7.0,94,0.00,,,0.05,0,Wunderground v.1.15,2013-03-08 06:37:00,
2013-03-07 22:43:00,44.5,42.9,29.89,NW,322,6.0,9.0,94,0.00,,,0.05,0,Wunderground v.1.15,2013-03-08 06:43:00,
2013-03-07 22:49:00,44.4,42.8,29.89,WNW,294,6.0,9.0,94,0.00,,,0.05,0,Wunderground v.1.15,2013-03-08 06:49:00,
2013-03-07 22:54:00,44.4,42.8,29.89,WNW,286,6.0,6.0,94,0.00,,,0.05,0,Wunderground v.1.15,2013-03-08 06:54:00,
2013-03-07 23:00:00,44.4,42.8,29.89,West,273,6.0,6.0,94,0.00,,,0.05,0,Wunderground v.1.15,2013-03-08 07:00:00,
2013-03-07 23:06:00,44.4,42.8,29.89,WNW,284,6.0,7.0,94,0.00,,,0.06,0,Wunderground v.1.15,2013-03-08 07:06:00,
2013-03-07 23:12:00,44.3,42.7,29.88,West,267,6.0,6.0,94,0.00,,,0.06,0,Wunderground v.1.15,2013-03-08 07:12:00,
2013-03-07 23:18:00,44.3,42.7,29.88,WNW,282,6.0,9.0,94,0.00,,,0.06,0,Wunderground v.1.15,2013-03-08 07:18:00,
2013-03-07 23:23:00,44.2,42.6,29.88,WNW,294,6.0,6.0,94,0.00,,,0.06,0,Wunderground v.1.15,2013-03-08 07:23:00,
2013-03-07 23:29:00,44.2,42.6,29.88,West,280,6.0,8.0,94,0.00,,,0.06,0,Wunderground v.1.15,2013-03-08 07:29:00,
2013-03-07 23:35:00,44.2,42.6,29.88,WNW,291,6.0,6.0,94,0.00,,,0.06,0,Wunderground v.1.15,2013-03-08 07:35:00,
2013-03-07 23:41:00,44.2,42.6,29.88,WNW,290,4.0,4.0,94,0.00,,,0.06,0,Wunderground v.1.15,2013-03-08 07:41:00,
2013-03-07 23:46:00,44.2,42.6,29.88,WNW,291,4.0,5.0,94,0.00,,,0.06,0,Wunderground v.1.15,2013-03-08 07:46:00,
2013-03-07 23:51:00,44.2,42.9,29.88,WNW,286,4.0,4.0,95,0.00,,,0.06,0,Wunderground v.1.15,2013-03-08 07:51:00,
2013-03-07 23:56:00,44.1,42.8,29.88,WNW,286,4.0,4.0,95,0.00,,,0.06,0,Wunderground v.1.15,2013-03-08 07:56:00,